Header for Extended Forecast Station List Page

Search by: ID | Name | Date | Parm | Value | Avg | % Avg
Sort by: ID | Name | Date | Parm | Value | Avg | % Avg

Enter search or view all records.

Click on id for station plot
#IDNameDateParmValueAvg% Avg
0BULO3BULLY CREEK-BULLY CREEK DAM11-22-2021INFLOW (KAF)284682
1RIDI1WILLOW CREEK-RIRIE DAM11-22-2021INFLOW (KAF)81365
2LWRI1LITTLE WOOD-LITTLE WOOD DAM11-22-2021INFLOW (KAF)1614115
3HWRI1BIG LOST-AT HOWELL RANCH NEAR CHILLY11-22-2021DISCHARGE (KAF)151885
4DEDI1DEADWOOD-NEAR LOWMAN11-22-2021INFLOW (KAF)141875
5BERO3MALHEUR-AGENCY VALLEY DAM11-22-2021INFLOW (KAF)132165
6ARDW1ENTIAT-NEAR ARDENVOIR11-22-2021DISCHARGE (KAF)4525178
7MAGI1BIG WOOD-MAGIC DAM11-22-2021INFLOW (KAF)112542
8HOTI1BRUNEAU-NEAR HOT SPRINGS11-22-2021DISCHARGE (KAF)193062
9MYKO3MCKAY CREEK-NEAR PILOT ROCK11-22-2021DISCHARGE (KAF)3731120
10WRMO3MALHEUR-WARM SPRINGS DAM11-22-2021INFLOW (KAF)253571
11HALI1BIG WOOD-AT HAILEY11-22-2021DISCHARGE (KAF)253768
12MACI1BIG LOST-MACKAY RESERVOIR NEAR MACKAY11-22-2021INFLOW (KAF)283973
13BUDW1BUMPING-BUMPING LAKE DAM11-22-2021INFLOW (KAF)4540113
14STRM8ST. REGIS-NEAR ST. REGIS11-22-2021DISCHARGE (KAF)234352
15RCCM8ROCK CREEK-NEAR CLINTON11-22-2021DISCHARGE (KAF)5245115
16DLGM8CLARK FORK-AT DEER LODGE11-22-2021DISCHARGE (KAF)465190
17KADW1KACHESS-KACHESS DAM11-22-2021INFLOW (KAF)5951117
18GIBO3UMATILLA-NEAR GIBBON11-22-2021DISCHARGE (KAF)445186
19KEDW1YAKIMA-KEECHELUS LAKE11-22-2021INFLOW (KAF)6053114
20PIHI1PORTNEUF-AT POCATELLO11-22-2021DISCHARGE (KAF)385370
21TNAW1TEANAWAY-BELOW FORKS11-22-2021DISCHARGE (KAF)6555118
22MILI1SNAKE-AT MILNER11-22-2021DISCHARGE (KAF)M55M
23SATI1ST MARIES-NEAR SANTA11-22-2021DISCHARGE (KAF)216334
24BIGI1BOISE-AT GLENWOOD BRIDGE11-22-2021DISCHARGE (KAF)11564179
25RILW1TIETON-RIMROCK LAKE NEAR RIMROCK11-22-2021INFLOW (KAF)8075106
26EASW1YAKIMA-AT EASTON11-22-2021DISCHARGE (KAF)727991
27ARAI1SF BOISE-ANDERSON RANCH DAM11-22-2021INFLOW (KAF)697987
28TEAI1TETON-NEAR ST. ANTHONY11-22-2021DISCHARGE (KAF)769679
29CSDI1NF PAYETTE-CASCADE DAM11-22-2021INFLOW (KAF)779978
30PATW1METHOW-NEAR PATEROS11-22-2021DISCHARGE (KAF)142105136
31IPDI1HENRYS FORK-ISLAND PARK DAM11-22-2021INFLOW (KAF)7810575
32CHEI1FALL RIVER-NEAR CHESTER11-22-2021DISCHARGE (KAF)10111489
33CLUW1CLE ELUM-CLE ELUM LAKE11-22-2021INFLOW (KAF)149115130
34JLKW4SNAKE-JACKSON LAKE AT DAM11-22-2021INFLOW (KAF)9311581
35UMAO3UMATILLA-NEAR UMATILLA11-22-2021DISCHARGE (KAF)129122105
36DRMM8CLARK FORK-NR DRUMMOND11-22-2021DISCHARGE (KAF)10912488
37CLFW1NACHES-NEAR CLIFFDEL11-22-2021DISCHARGE (KAF)12512898
38PDTO3UMATILLA-AT PENDLETON11-22-2021DISCHARGE (KAF)11413088
39BONM8BLACKFOOT-NEAR BONNER11-22-2021DISCHARGE (KAF)157136115
40OWYO3OWYHEE-OWYHEE DAM11-22-2021INFLOW (KAF)230136169
41LAUW1KETTLE-AT LAURIER11-22-2021DISCHARGE (KAF)11413783
42WGCM8MF FLATHEAD-NEAR WEST GLACIER11-22-2021DISCHARGE (KAF)215155139
43LUCI1BOISE-LUCKY PEAK DAM11-22-2021INFLOW (KAF)13916485
44WSRI1WEISER-NEAR WEISER11-22-2021DISCHARGE (KAF)15816695
45NACW1NACHES-NEAR NACHES11-22-2021DISCHARGE (KAF)13017276
46FCFM8NF FLATHEAD-NEAR COLUMBIA FALLS11-22-2021DISCHARGE (KAF)341174196
47TCHW1WALLA WALLA-NEAR TOUCHET11-22-2021DISCHARGE (KAF)13118670
48CHDW1CHELAN-LAKE CHELAN DAM11-22-2021INFLOW (KAF)395197200
49MONO3NF JOHN DAY-AT MONUMENT11-22-2021DISCHARGE (KAF)10920254
50PARI1BOISE-NEAR PARMA11-22-2021DISCHARGE (KAF)273204134
51BITM8BITTERROOT-NEAR MISSOULA11-22-2021DISCHARGE (KAF)18820592
52PRTI1PRIEST-NEAR PRIEST RIVER11-22-2021DISCHARGE (KAF)16122970
53HHWM8SF FLATHEAD-HUNGRY HORSE DAM11-22-2021INFLOW (KAF)258238108
54HODO3HOOD-NEAR TUCKER BRIDGE11-22-2021DISCHARGE (KAF)290244119
55UNDW1WHITE SALMON-NEAR UNDERWOOD11-22-2021DISCHARGE (KAF)309276112
56TONW1OKANOGAN-NEAR TONASKET11-22-2021DISCHARGE (KAF)460305151
57JKSW4SNAKE-NEAR JACKSON11-22-2021DISCHARGE (KAF)24531478
58SERO3JOHN DAY-AT SERVICE CK11-22-2021DISCHARGE (KAF)18832258
59ABOM8CLARK FORK-ABOVE MISSOULA11-22-2021DISCHARGE (KAF)331328101
60UMTW1YAKIMA-AT UMTANUM11-22-2021DISCHARGE (KAF)30032891
61EMMI1PAYETTE-NEAR EMMETT11-22-2021DISCHARGE (KAF)31533394
62PESW1WENATCHEE-AT PESHASTIN11-22-2021DISCHARGE (KAF)508334152
63PITW1KLICKITAT-NEAR PITT11-22-2021DISCHARGE (KAF)448357126
64ALPW4SNAKE-NEAR ALPINE11-22-2021DISCHARGE (KAF)30737582
65ANTI1HENRYS FORK-AT ST. ANTHONY11-22-2021DISCHARGE (KAF)31537883
66HEII1SNAKE-NEAR HEISE11-22-2021DISCHARGE (KAF)35137893
67REXI1HENRYS FORK-AT REXBURG11-22-2021DISCHARGE (KAF)37743587
68TRYO3GRANDE RONDE-TROY11-22-2021DISCHARGE (KAF)28745363
69BELM8CLARK FORK-BELOW MISSOULA11-22-2021DISCHARGE (KAF)52054296
70PARW1YAKIMA-NEAR PARKER11-22-2021DISCHARGE (KAF)54156596
71BFTI1SNAKE-NEAR BLACKFOOT11-22-2021DISCHARGE (KAF)47257982
72PLDI1SF SNAKE-PALISADES DAM11-22-2021INFLOW (KAF)47158081
73SNAI1SNAKE-AT BLACKFOOT11-22-2021DISCHARGE (KAF)46959179
74SIFI1SNAKE-AB EAGLE ROCK NR IDAHO FALLS11-22-2021DISCHARGE (KAF)56467184
75SHYI1SNAKE-NEAR SHELLEY11-22-2021DISCHARGE (KAF)54467681
76SRGM8CLARK FORK-AT ST REGIS11-22-2021DISCHARGE (KAF)63772588
77DWRI1NF CLEARWATER-DWORSHAK DAM11-22-2021INFLOW (KAF)48073565
78KIOW1YAKIMA-AT KIONA11-22-2021DISCHARGE (KAF)73480791
79LYDM8KOOTENAI-LIBBY DAM11-22-2021INFLOW (KAF)1090836130
80ORFI1CLEARWATER-AT OROFINO11-22-2021DISCHARGE (KAF)53891959
81CFMM8FLATHEAD-AT COLUMBIA FALLS11-22-2021DISCHARGE (KAF)1040944110
82WHBI1SALMON-AT WHITEBIRD11-22-2021DISCHARGE (KAF)920103989
83COEI1COEUR D ALENE-COEUR D ALENE LAKE11-22-2021INFLOW (KAF)751110068
84AFRI1SNAKE-AMERICAN FALLS RESERVOIR11-22-2021INFLOW (KAF)1117119693
85SPOW1SPOKANE-AT SPOKANE11-22-2021DISCHARGE (KAF)748122861
86KERM8FLATHEAD-SELI’Š KSANKA QLISPE’ DAM11-22-2021INFLOW (KAF)1186139385
87MODO3DESCHUTES-AT MOODY NR BIGGS11-22-2021DISCHARGE (KAF)14241399102
88LLKW1SPOKANE-AT LONGLAKE11-22-2021INFLOW (KAF)1016147869
89SPDI1CLEARWATER-AT SPALDING11-22-2021DISCHARGE (KAF)1071173062
90SWAI1SNAKE-BELOW SWAN FALLS11-22-2021DISCHARGE (KAF)1710187491
91LEOI1KOOTENAI-AT LEONIA11-22-2021DISCHARGE (KAF)31422481127
92WEII1SNAKE-AT WEISER11-22-2021DISCHARGE (KAF)2729291394
93NOXM8CLARK FORK-NOXON RAPIDS DAM11-22-2021INFLOW (KAF)2941311295
94BRNI1SNAKE-BROWNLEE DAM11-22-2021INFLOW (KAF)2966313195
95CABI1CLARK FORK-CABINET GORGE DAM11-22-2021INFLOW (KAF)3207354890
96ALFW1PEND OREILLE-ALBENI FALLS DAM11-22-2021INFLOW (KAF)3493399487
97ANAW1SNAKE-NEAR ANATONE11-22-2021DISCHARGE (KAF)4212530479
98LGDW1SNAKE-LOWER GRANITE DAM11-22-2021INFLOW (KAF)5283709075
99LGSW1SNAKE-LITTLE GOOSE DAM11-22-2021INFLOW (KAF)5283712474
100LMNW1SNAKE-LOWER MONUMENTAL DAM11-22-2021INFLOW (KAF)5535724276
101IHDW1SNAKE-ICE HARBOR DAM11-22-2021INFLOW (KAF)5535727076
102CIBW1COLUMBIA-AT INTL BOUNDARY11-22-2021DISCHARGE (KAF)2210619958111
103GCDW1COLUMBIA-GRAND COULEE DAM11-22-2021INFLOW (KAF)2327221578108
104CHJW1COLUMBIA-CHIEF JOSEPH DAM11-22-2021INFLOW (KAF)2547823785107
105WELW1COLUMBIA-WELLS DAM11-22-2021INFLOW (KAF)2606324415107
106RRHW1COLUMBIA-ROCKY REACH DAM11-22-2021INFLOW (KAF)2683424822108
107WANW1COLUMBIA-WANAPUM DAM11-22-2021INFLOW (KAF)2740125433108
108PRWW1COLUMBIA-PRIEST RAPIDS DAM11-22-2021INFLOW (KAF)2739025508107
109MCDW1COLUMBIA-MCNARY DAM11-22-2021INFLOW (KAF)337273397699
110JDAO3COLUMBIA-JOHN DAY DAM11-22-2021INFLOW (KAF)351833548199
111TDAO3COLUMBIA-THE DALLES DAM11-22-2021INFLOW (KAF)358563607399
112BONO3COLUMBIA-BONNEVILLE DAM11-22-2021INFLOW (KAF)369053775898
113BFEI1KOOTENAI-AT BONNERS FERRY11-22-2021STAGE (FT)MMM
114HOPI1PEND OREILLE-PEND OREILLE LAKE NR HOPE11-22-2021LAKE ELEVATION (FT)MMM
115SJMI1ST JOE-AT ST MARIES11-22-2021STAGE (FT)MMM